EW4025 Weather Reports


Display with metric or nautical units.
time (UTC)temp
F
wind
direction
speed
MPH
gust
MPH
rain 1hr
in
rain 24hr
in
rain mn
in
humidity
%
barometer
mb
20200406071537 58 204 7.0 15.0 0.00 0.00 0.00 49 1017.7
20200406071033 58 215 7.0 15.0 0.00 0.00 0.00 49 1017.5
20200406070548 58 187 7.0 14.0 0.00 0.00 0.00 51 1017.5
20200406070042 57 188 7.0 15.0 0.00 0.00 0.00 52 1017.5
20200406065541 57 233 6.0 15.0 0.00 0.00 0.00 52 1017.5
20200406065036 56 225 5.0 11.0 0.00 0.00 0.00 53 1017.5
20200406064531 55 183 6.0 12.0 0.00 0.00 0.00 54 1017.4
20200406064047 55 212 3.0 8.0 0.00 0.00 0.00 57 1017.3
20200406063543 54 211 5.0 8.0 0.00 0.00 0.00 56 1017.3
20200406063037 53 193 3.0 8.0 0.00 0.00 0.00 60 1017.2
20200406062532 53 139 4.0 9.0 0.00 0.00 0.00 59 1017.3
20200406062032 52 162 3.0 9.0 0.00 0.00 0.00 60 1017.3
20200406061548 51 156 4.0 7.0 0.00 0.00 0.00 61 1017.2
20200406061042 51 158 4.0 7.0 0.00 0.00 0.00 62 1017.1
20200406060538 51 154 3.0 6.0 0.00 0.00 0.00 62 1017.1
20200406060325 50 173 4.0 6.0 0.00 0.00 0.00 61 1017.1
20200406055530 50 210 2.0 6.0 0.00 0.00 0.00 61 1017.1
20200406055046 50 168 3.0 6.0 0.00 0.00 0.00 60 1017.0
20200406054542 50 174 4.0 6.0 0.00 0.00 0.00 60 1016.8
20200406054042 50 144 3.0 7.0 0.00 0.00 0.00 60 1016.7
20200406053537 51 171 3.0 7.0 0.00 0.00 0.00 60 1016.7
20200406053034 51 217 3.0 6.0 0.00 0.00 0.00 59 1016.6
20200406052549 51 195 4.0 7.0 0.00 0.00 0.00 59 1016.6
20200406052044 51 148 3.0 6.0 0.00 0.00 0.00 59 1016.5
20200406051539 51 169 4.0 8.0 0.00 0.00 0.00 59 1016.5
20200406051035 51 143 3.0 8.0 0.00 0.00 0.00 59 1016.4
20200406050535 51 156 4.0 8.0 0.00 0.00 0.00 59 1016.4
20200406050030 51 194 3.0 10.0 0.00 0.00 0.00 59 1016.4
20200406045558 50 178 4.0 12.0 0.00 0.00 0.00 59 1016.3
20200406045042 50 173 5.0 12.0 0.00 0.00 0.00 60 1016.2
20200406044538 50 176 5.0 9.0 0.00 0.00 0.00 60 1016.2
20200406044032 50 150 5.0 10.0 0.00 0.00 0.00 61 1016.2
20200406043548 49 162 4.0 10.0 0.00 0.00 0.00 61 1016.2
20200406043049 49 141 5.0 10.0 0.00 0.00 0.00 61 1016.2
20200406042544 49 167 3.0 8.0 0.00 0.00 0.00 61 1016.2
20200406042040 49 151 4.0 7.0 0.00 0.00 0.00 61 1016.1
20200406041539 50 154 3.0 5.0 0.00 0.00 0.00 61 1016.1
20200406041032 50 164 2.0 5.0 0.00 0.00 0.00 60 1016.2
20200406040548 50 182 2.0 6.0 0.00 0.00 0.00 60 1016.2
20200406040044 50 155 3.0 6.0 0.00 0.00 0.00 60 1016.2
20200406035544 50 162 3.0 6.0 0.00 0.00 0.00 59 1016.2
20200406035040 50 130 2.0 5.0 0.00 0.00 0.00 59 1016.2
20200406034535 50 108 3.0 5.0 0.00 0.00 0.00 58 1016.2
20200406034030 51 174 3.0 6.0 0.00 0.00 0.00 58 1016.2
20200406033546 51 170 3.0 8.0 0.00 0.00 0.00 58 1016.2
20200406033042 51 156 3.0 8.0 0.00 0.00 0.00 58 1016.2
20200406032538 50 127 4.0 9.0 0.00 0.00 0.00 58 1016.2
20200406032036 50 189 4.0 9.0 0.00 0.00 0.00 59 1016.2
20200406031533 50 143 4.0 9.0 0.00 0.00 0.00 59 1016.2
20200406031048 50 159 3.0 9.0 0.00 0.00 0.00 59 1016.2
20200406030544 49 170 6.0 9.0 0.00 0.00 0.00 60 1016.2
20200406030039 49 177 5.0 8.0 0.00 0.00 0.00 60 1016.2
20200406025535 50 155 4.0 6.0 0.00 0.00 0.00 59 1016.2
20200406025049 50 175 2.0 5.0 0.00 0.00 0.00 59 1016.3
20200406024546 50 183 2.0 5.0 0.00 0.00 0.00 58 1016.3
20200406024046 50 205 3.0 5.0 0.00 0.00 0.00 58 1016.4
20200406023541 51 198 3.0 6.0 0.00 0.00 0.00 58 1016.4
20200406023037 51 193 2.0 5.0 0.00 0.00 0.00 57 1016.3
20200406022533 51 170 3.0 5.0 0.00 0.00 0.00 57 1016.4
20200406022049 51 151 2.0 6.0 0.00 0.00 0.00 56 1016.3
20200406021546 51 155 4.0 6.0 0.00 0.00 0.00 56 1016.4
20200406021043 52 175 3.0 5.0 0.00 0.00 0.00 56 1016.4
20200406020542 52 158 4.0 8.0 0.00 0.00 0.00 56 1016.4
20200406020038 52 193 4.0 9.0 0.00 0.00 0.00 55 1016.4
20200406015534 52 202 5.0 9.0 0.00 0.00 0.00 55 1016.4
20200406015031 52 191 4.0 8.0 0.00 0.00 0.00 55 1016.4
20200406014547 52 181 4.0 11.0 0.00 0.00 0.00 55 1016.3
20200406014042 52 210 5.0 11.0 0.00 0.00 0.00 54 1016.3
20200406013538 52 197 4.0 8.0 0.00 0.00 0.00 55 1016.3
20200406013038 52 168 3.0 8.0 0.00 0.00 0.00 55 1016.3
20200406012534 52 157 4.0 9.0 0.00 0.00 0.00 55 1016.3
20200406012030 52 185 3.0 10.0 0.00 0.00 0.00 55 1016.3
20200406011543 52 156 4.0 10.0 0.00 0.00 0.00 56 1016.3
20200406011040 52 154 4.0 9.0 0.00 0.00 0.00 56 1016.3
20200406010535 51 149 4.0 10.0 0.00 0.00 0.00 56 1016.3
20200406010030 51 207 4.0 8.0 0.00 0.00 0.00 57 1016.3
20200406005532 51 160 4.0 6.0 0.00 0.00 0.00 57 1016.3
20200406005048 51 177 4.0 5.0 0.00 0.00 0.00 57 1016.3
20200406004545 51 176 4.0 8.0 0.00 0.00 0.00 57 1016.3
20200406004041 51 187 2.0 7.0 0.00 0.00 0.00 57 1016.3
20200406003538 51 160 3.0 7.0 0.00 0.00 0.00 57 1016.3
20200406003054 51 155 3.0 7.0 0.00 0.00 0.00 57 1016.3
20200406002551 51 146 3.0 7.0 0.00 0.00 0.00 57 1016.3
20200406002051 51 119 4.0 7.0 0.00 0.00 0.00 57 1016.3
20200406001548 51 154 3.0 6.0 0.00 0.00 0.00 56 1016.4
20200406001043 51 165 3.0 7.0 0.00 0.00 0.00 56 1016.3
20200406000559 52 167 4.0 9.0 0.00 0.00 0.00 56 1016.4
20200406000055 52 121 2.0 8.0 0.00 0.00 0.00 55 1016.4
20200405235551 52 171 3.0 7.0 0.00 0.00 0.00 54 1016.4
20200405235048 52 168 2.0 7.0 0.00 0.00 0.00 54 1016.4
20200405234549 52 143 2.0 5.0 0.00 0.00 0.00 54 1016.4
20200405234045 53 137 2.0 6.0 0.00 0.00 0.00 53 1016.4
20200405233559 53 158 3.0 7.0 0.00 0.00 0.00 53 1016.4
20200405233056 53 138 3.0 8.0 0.00 0.00 0.00 53 1016.4
20200405232551 53 133 4.0 8.0 0.00 0.00 0.00 53 1016.4
20200405232048 53 140 4.0 8.0 0.00 0.00 0.00 53 1016.4
20200405231554 53 134 4.0 10.0 0.00 0.00 0.00 53 1016.4
20200405231045 53 185 4.0 11.0 0.00 0.00 0.00 52 1016.5
20200405230541 53 151 3.0 11.0 0.00 0.00 0.00 53 1016.5
20200405230058 53 170 4.0 8.0 0.00 0.00 0.00 53 1016.5
20200405225553 53 146 3.0 11.0 0.00 0.00 0.00 52 1016.5
20200405225048 53 196 4.0 11.0 0.00 0.00 0.00 52 1016.5
20200405224545 53 160 4.0 9.0 0.00 0.00 0.00 52 1016.4
20200405224041 53 143 4.0 9.0 0.00 0.00 0.00 52 1016.4
20200405223541 53 133 4.0 11.0 0.00 0.00 0.00 52 1016.4
20200405223058 53 139 5.0 11.0 0.00 0.00 0.00 52 1016.4
20200405222554 53 120 6.0 11.0 0.00 0.00 0.00 52 1016.4
20200405222049 53 139 6.0 11.0 0.00 0.00 0.00 52 1016.4
20200405221617 53 181 5.0 10.0 0.00 0.00 0.00 52 1016.5